ダレスト彗星

6P/d'Arrest (1995)

English version
Home page
Updated on September 23, 2004

---------------------------------------------------------------------

・ プロフィール

・ 軌道要素

  by Kenji Muraoka,
  from 317 observations  1982 Apr. 23 to 1996 Feb. 19,
  mean residual is  +/- 0.74 arc seconds.

      Epoch  =  1995 July 22.0  TT       JDT = 2449920.5
          T  =  1995 July 27.32307       +/- 0.00031 (m.e.) TT
       Peri. =  178.04999                +/- 0.00020
       Node  =  138.98943                +/- 0.00002   (2000.0)
       Incl. =   19.52382                +/- 0.00001
          q  =    1.3458129              +/- 0.0000005 AU
          e  =    0.6140421              +/- 0.0000003
          a  =    3.4869422              +/- 0.0000008 AU
          n  =    0.15136900             +/- 0.00000005
          P  =    6.511                  +/- 0.0000021  years
         A1  =   +0.663                  +/- 0.016
         A2  =   +0.07868                +/- 0.00071

・ 星図

・ 1995年 5月 3日〜1996年 4月27日

・ 光度変化

        m1 = 5.0 + 5 logΔ + 38.0 log r(t - 72)

---------------------------------------------------------------------

軌道要素は村岡健治氏の計算によるものです。
星図は StellaNavigator Ver.2.0 for Windows (アストロアーツ 編著 / アスキー出版局刊) で作成したものです。
光度グラフはComet for Windowsで作成したものです。

---------------------------------------------------------------------

Copyright(C) Seiichi Yoshida (comet@aerith.net). All rights reserved.